Hourly Data Report for October 28, 2016

All times are specified in Local Standard Time (LST). Add 1 hour to adjust for Daylight Saving Time where and when it is observed.

OTTAWA INTL A
ONTARIO

45°19'00.000" N
75°40'00.000" W
114.90 m
6106001
71628
YOW

Download Data

Hourly Data (October 2016)
Hourly Data Report for October 28, 2016
Temp Definition
°C
Dew Point Temp Definition
°C
Rel Hum Definition
%
Wind Dir Definition
10's deg

Wind Spd Definition
km/h
Visibility Definition
km
Stn Press Definition
kPa
Hmdx Definition


Wind Chill Definition


Weather Definition


TIME
00:00 Legend Double Dagger 0.3 0.0 98 6 19 3.2 100.19     Snow,Fog
01:00 Legend Double Dagger 0.4 0.1 98 5 21 8.1 100.17     Rain,Snow,Fog
02:00 Legend Double Dagger 0.4 0.1 98 5 21 8.1 100.15     Rain,Fog
03:00 Legend Double Dagger 0.6 0.5 99 4 19 6.4 100.17     Rain,Fog
04:00 Legend Double Dagger 0.7 0.6 99 1 15 3.2 100.25     Drizzle,Fog
05:00 Legend Double Dagger 1.0 0.9 99 35 16 3.2 100.34     Drizzle,Fog
06:00 Legend Double Dagger 1.0 0.7 98 33 16 8.1 100.43     Drizzle,Fog
07:00 Legend Double Dagger 1.3 1.0 98 34 16 4.0 100.53     Drizzle,Fog
08:00 Legend Double Dagger 1.6 1.5 99 34 13 4.0 100.64     Drizzle,Fog
09:00 Legend Double Dagger 1.7 1.4 98 35 13 6.4 100.71     Drizzle,Fog
10:00 Legend Double Dagger 2.1 1.8 98 34 12 8.1 100.77     Drizzle,Fog
11:00 Legend Double Dagger 2.4 2.1 98 32 8 6.4 100.80     Drizzle,Fog
12:00 Legend Double Dagger 2.6 2.5 99 31 11 4.8 100.81     Drizzle,Fog
13:00 Legend Double Dagger 2.9 2.8 99 31 12 4.8 100.84     Drizzle,Fog
14:00 Legend Double Dagger 3.5 3.1 97 32 4 12.9 100.84     Drizzle
15:00 Legend Double Dagger 3.8 2.9 94 27 5 12.9 100.87     LegendNANA
16:00 Legend Double Dagger 3.0 2.4 96 27 14 12.9 100.89     Drizzle
17:00 Legend Double Dagger 2.7 2.0 95 26 12 12.9 100.90     Drizzle
18:00 Legend Double Dagger 2.4 1.7 95 25 13 16.1 100.94     LegendNANA
19:00 Legend Double Dagger 2.2 1.3 94 22 9 24.1 100.88     Cloudy
20:00 Legend Double Dagger 2.0 1.0 93 24 13 24.1 100.92     LegendNANA
21:00 Legend Double Dagger 0.8 0.1 95 15 8 24.1 100.81     LegendNANA
22:00 Legend Double Dagger 0.7 0.1 96 18 7 24.1 100.80     Cloudy
23:00 Legend Double Dagger 1.1 0.4 95 22 9 24.1 100.89     LegendNANA

Notes on Data Quality.

Legend

  • E = Estimated
  • M = Missing
  • NA = Not Available
  • ‡ = Partner data that is not subject to review by the National Climate Archives
Date modified: